Regional Weather Roundup
Issued by NWS

Home | Current Version | Previous Version | Text Only | Print | Product List | Glossary Off
Versions: 1 2 3 4 5 6 7 8 9 10 11 12 13 14 15 16 17 18 19 20 21 22 23 24 25 26 27 28 29 30 31 32 33 34 35 36 37 38 39 40 41 42 43 44 45 46 47 48 49 50

000
ASUS43 KLOT 311300
RWRIL

ILLINOIS REGIONAL WEATHER ROUNDUP
NATIONAL WEATHER SERVICE CHICAGO/ROMEOVILLE IL
800 AM CDT FRI JUL 31 2015

NOTE: "FAIR" INDICATES FEW OR NO CLOUDS BELOW 12,000 FEET WITH NO
SIGNIFICANT WEATHER AND/OR OBSTRUCTIONS TO VISIBILITY.

* THESE STATIONS ARE NOT UNDER NWS QUALITY CONTROL. THEY ALSO MAY NOT
  REPORT WEATHER SUCH AS PRECIPITATION OR FOG.

ILZ001-002-007-009-015-016-024-311400-
NORTHWEST ILLINOIS

CITY           SKY/WX    TMP DP  RH WIND       PRES   REMARKS
MOLINE         SUNNY     74  66  76 W8        30.08R
STERLING*      MOSUNNY   72  66  83 W10       30.04R
$$

ILZ003-004-008-010-011-017-018-311400-
NORTH CENTRAL ILLINOIS

CITY           SKY/WX    TMP DP  RH WIND       PRES   REMARKS
ROCKFORD       MOSUNNY   73  65  75 W7        30.05S
$$

ILZ005-006-012>014-019>023-311400-
NORTHEAST ILLINOIS

CITY           SKY/WX    TMP DP  RH WIND       PRES   REMARKS
CHICAGO-OHARE  PTSUNNY   73  60  63 W13       30.03R
CHICAGO-MIDWAY PTSUNNY   75  60  59 W6        30.02S
AURORA         CLOUDY    68  64  87 NW5       30.06R
WAUKEGAN       CLOUDY    70  60  70 VRB3      30.00S
DUPAGE AIRPORT CLOUDY    68  61  78 W5        30.04R
WHEELING       CLOUDY    72  59  63 W7        30.03R
NORTHERLY ISL    N/A     76  57  51 W12         N/A
$$

LMZ740>746-311400-
SOUTHERN LAKE MICHIGAN

STATION/POSITION SKY/WX   TEMP    WIND        PRES    VSBY  WAVE
                          AIR SEA DIR/SP/G                  HT/PER
                          (F)     (DEG/KT/KT) (MB)    (MI)  (FT/S)
HARRISON CRIB              74     260/ 14/ 16   N/A
BURNHAM HARBOR             74     270/  5/ 10   N/A
CALUMET HARBOR             71     220/  5/  6   N/A
BURNS HARBOR               71     230/  8/ 10 1017.3R
MICHIGAN CITY              71     190/  8/  9   N/A
MICHIGAN CITY 6N           74 73  250/  8/ 12   N/A           2/ 4
ST. JOSEPH                 74 74  300/ 10/ 14   N/A           2/ 4
$$

ILZ025>027-034>036-040-047-049-050-058-095>099-311400-
WEST-CENTRAL ILLINOIS

CITY           SKY/WX    TMP DP  RH WIND       PRES   REMARKS
QUINCY         SUNNY     73  65  75 W6        30.13S
MACOMB*        SUNNY     72  67  84 W5        30.13S
$$

ILZ028>032-037-038-041>044-048-051>054-059>061-311400-
CENTRAL ILLINOIS

CITY           SKY/WX    TMP DP  RH WIND       PRES   REMARKS
DECATUR        SUNNY     77  66  68 NW6       30.11R
PEORIA         SUNNY     75  65  70 W6        30.10R
SPRINGFIELD    SUNNY     74  67  78 W5        30.11S
TAYLORVILLE    NOT AVBL
$$

ILZ033-039-045-046-055>057-062-063-311400-
EAST-CENTRAL ILLINOIS

CITY           SKY/WX    TMP DP  RH WIND       PRES   REMARKS
CHAMPAIGN      SUNNY     70  66  87 W7        30.10S
MATTOON        SUNNY     73  64  73 NW8       30.10S
$$

ILZ079-100>102-311400-
SOUTHWEST ILLINOIS

CITY           SKY/WX    TMP DP  RH WIND       PRES   REMARKS
BELLEVILLE     SUNNY     77  69  75 NW7       30.12R
CAHOKIA*       SUNNY     76  66  71 SW5       30.13S
SPARTA*        SUNNY     71  66  83 W6        30.14S
$$

ILZ064>066-069>071-074>076-080>082-084>086-088>090-092>094-311400-
SOUTH-CENTRAL ILLINOIS

CITY           SKY/WX    TMP DP  RH WIND       PRES   REMARKS
CARBONDALE     SUNNY     74  67  78 NW5       30.13R
MT. VERNON     SUNNY     73  64  73 CALM      30.13S
SALEM*         SUNNY     75  67  75 CALM      30.13R
$$

ILZ067-068-072-073-078-083-087-091-311400-
SOUTHEAST ILLINOIS

CITY           SKY/WX    TMP DP  RH WIND       PRES   REMARKS
LAWRENCEVILLE  SUNNY     73  67  81 NW5       30.10R
FLORA*         SUNNY     72  65  77 CALM      30.12R
HARRISBURG*    SUNNY     73  69  89 CALM      30.13R
ROBINSON*      SUNNY     71  67  87 NW3       30.11R
CARMI*         SUNNY     73  64  73 CALM      30.11R
$$

ABBREVIATIONS USED IN REMARKS
   TC - TEMPERATURE IN CELSIUS
  WCI - WIND CHILL INDEX
   HX - HEAT INDEX
  VSB - VISIBILITY
$$



USA.gov is the U.S. government's official web portal to all federal, state and local government web resources and services.